THOR BURNER 2 R/B

Satellite information

Favourite Embed

Satellite Type and Status

ROCKET BODYIN ORBIT

Key statistics

Satellite THOR BURNER 2 R/B at a glance.

Uptime

20023

Days in orbit

Revolutions

≈ 14.4

Per day

Orbit

SSO

Sun Synchronous Orbit

Inclination

98.3

Latest

Satellite identification and parameters

Extended collection of information and parameters for THOR BURNER 2 R/B.

Object identification

Identified? True

Debris? False

Object name: THOR BURNER 2 R/B

International designator: 1971-012B

Object number (NORAD): 4954

Object ID (CCSDS): 4954

Country: UNITED STATES OF AMERICA (US)

Current information (Y/N): Y

RCS size: LARGE

Orbital parameters

Period: 100.024 minutes

Inclination: 98.3457 deg

SMA: 7137.775 km

Apoapsis: 786.489 km

Periapsis: 732.79 km

RAAN: 200.047 deg

Eccentricy: 0.00376161

Argument of periapsis: 74.8041 deg

Mean anomaly: 285.7303 deg

Mean motion: 14.39655283 rev/day

Mean motion (dot): 0.00000416 rev/day2

B* drag term: 0.00014544282 1/REarth

Two-line elements (TLE)

Creation date: Dec. 12, 2025, 10:14 a.m.

Reference frame: TEME

Reference center: EARTH

Epoch: Dec. 12, 2025, 4:22 a.m. UTC

TLE line 0: 0 THOR BURNER 2 R/B

TLE line 1: 1 04954U 71012B 25346.18262307 .00000416 00000-0 14544-3 0 9994

TLE line 2: 2 04954 98.3457 200.0470 0037616 74.8041 285.7303 14.39655283868961

Live tracking on map

Real-time ground track for satellite THOR BURNER 2 R/B.

In-orbit conjunctions

A list of the most updated potential collisions computed for object THOR BURNER 2 R/B.

Target Orbit TCA Probability of collision Miss distance Type
CZ-6A DEB LEO 2025-01-19 05:39:55 0.0001340991 225.0 (m) DEBRIS
CZ-6A DEB LEO 2024-10-03 14:55:40 0.0001484981 660.0 (m) DEBRIS
NOAA 16 DEB SSO 2024-08-16 05:30:42 0.0004129246 68.0 (m) DEBRIS

Associated space launch

Military meteorological satellite

THOR BURNER 2 R/B was lifted into orbit during the mission ‘Thor Burner 2 | DSAP-5A F3’, on board a Thor Burner 2 space rocket.

The launch took place on Feb. 17, 1971, 3:52 a.m. from Space Launch Complex 10W.

For more information about the launch, click the button.

Launch to space Thor Burner 2 | DSAP-5A F3
Thor Burner 2 | DSAP-5A F3

Agency: N/A

Status: Launch Successful

Launch date: Feb. 17, 1971, 3:52 a.m. UTC

Rocket: Thor Burner 2

Launch pad: Space Launch Complex 10W

Location: Vandenberg SFB, CA, USA

...

Latest news about this satellite

There are no fresh news available about this satellite. Check back as we update our databases every day.


Newsletter sign-up

Weekly statistics, charts and insights to help you stay on top of the space industry.